Tracking 31027 objects as of 18-Jul-2025
HD Live streaming from Space Station
objects crossing your sky now

YAOGAN-43 02B

Track YAOGAN-43 02B now!
10-day predictions
YAOGAN-43 02B is classified as:


NORAD ID: 60946
Int'l Code: 2024-156B
Perigee: 502.4 km
Apogee: 505.5 km
Inclination: 35.0 °
Period: 94.6 minutes
Semi major axis: 6874 km
RCS: Unknown
Launch date: September 3, 2024
Source: People's Republic of China (PRC)
Launch site: Xichang Space Center, China (XSC)
Your satellite tracking list
Your tracking list is empty




NASA's NSSDC Master Catalog

Two Line Element Set (TLE):
1 60946U 24156B   25199.52870258  .00009295  00000-0  38685-3 0  9994
2 60946  34.9939 136.5313 0002277 284.1734  75.8727 15.23003371 48545
Source of the keplerian elements: AFSPC